Douglas Observed Data For Previous 48 Hours

Caption
Day and Hour Reservoir Elevation (behind dam)* Tailwater Elevation (below dam)* Average Hourly Discharge*
1/16/2019 2 AM EST 967.87 877.03 23,550
1/16/2019 3 AM EST 967.81 876.95 23,575
1/16/2019 4 AM EST 967.76 877.00 23,576
1/16/2019 5 AM EST 967.72 877.01 23,579
1/16/2019 6 AM EST 967.65 877.04 23,585
1/16/2019 7 AM EST 967.59 877.04 23,583
1/16/2019 8 AM EST 967.55 876.98 23,559
1/16/2019 9 AM EST 967.50 876.97 23,558
1/16/2019 10 AM EST 967.44 876.98 23,563
1/16/2019 11 AM EST 967.38 877.09 23,567
1/16/2019 12 PM EST 967.33 877.01 23,542
1/16/2019 1 PM EST 967.29 877.02 23,529
1/16/2019 2 PM EST 967.23 877.01 23,531
1/16/2019 3 PM EST 967.17 877.06 23,549
1/16/2019 4 PM EST 967.12 877.02 23,545
1/16/2019 5 PM EST 967.07 877.00 23,535
1/16/2019 6 PM EST 967.01 877.06 23,541
1/16/2019 7 PM EST 966.96 877.02 23,535
1/16/2019 8 PM EST 966.90 877.01 23,533
1/16/2019 9 PM EST 966.84 877.04 23,517
1/16/2019 10 PM EST 966.79 877.04 23,527
1/16/2019 11 PM EST 966.73 877.03 23,520
1/17/2019 12 AM EST 966.67 876.98 23,522
1/17/2019 1 AM EST 966.62 877.04 23,488
1/17/2019 2 AM EST 966.57 877.00 23,495
1/17/2019 3 AM EST 966.51 877.03 23,479
1/17/2019 4 AM EST 966.45 876.97 23,466
1/17/2019 5 AM EST 966.39 877.03 23,447
1/17/2019 6 AM EST 966.33 876.98 23,427
1/17/2019 7 AM EST 966.28 877.00 23,413
1/17/2019 8 AM EST 966.22 877.01 23,420
1/17/2019 9 AM EST 966.16 877.05 23,413
1/17/2019 10 AM EST 966.11 876.99 23,417
1/17/2019 11 AM EST 966.03 877.05 23,396
1/17/2019 12 PM EST 965.98 876.96 23,371
1/17/2019 1 PM EST 965.95 877.02 23,339
1/17/2019 2 PM EST 965.89 877.02 23,354
1/17/2019 3 PM EST 965.82 877.03 23,365
1/17/2019 4 PM EST 965.74 877.01 23,349
1/17/2019 5 PM EST 965.71 877.00 23,352
1/17/2019 6 PM EST 965.65 877.04 23,337
1/17/2019 7 PM EST 965.59 877.02 23,335
1/17/2019 8 PM EST 965.51 877.06 23,321
1/17/2019 9 PM EST 965.47 877.01 23,328
1/17/2019 10 PM EST 965.42 876.97 23,304
1/17/2019 11 PM EST 965.37 876.99 23,319
1/18/2019 12 AM EST 965.31 877.03 23,300

Elevations are in feet above sea level. Discharges are in cubic feet per second and are reported at the end of the hour.